This is the latest recevied weather packets stored in our database for station/object DD3UTS-13. If no packets are shown the sender has not sent any weather packets the latest 1 day(s).
| Time | Temp. | Humidity | Pressure | Rain* | Wind** | Luminosity | Snow |
|---|---|---|---|---|---|---|---|
| 1777969832 | 16.67° C | 72% | 1008.7 hPa | 0.25 mm | 1.79 m/s, 300° | 530 W/m² | - |
| 1777969532 | 16.67° C | 73% | 1008.8 hPa | 0.25 mm | 2.68 m/s, 290° | 273 W/m² | - |
| 1777969232 | 16.67° C | 74% | 1008.8 hPa | 0.25 mm | 2.24 m/s, 287° | 224 W/m² | - |
| 1777968931 | 16.11° C | 73% | 1008.8 hPa | 0.25 mm | 2.24 m/s, 245° | 216 W/m² | - |
| 1777968632 | 16.67° C | 73% | 1008.9 hPa | 0.25 mm | 1.79 m/s, 335° | 232 W/m² | - |
| 1777968331 | 16.11° C | 74% | 1008.9 hPa | 0.25 mm | 1.79 m/s, 280° | 266 W/m² | - |
| 1777968033 | 16.11° C | 74% | 1008.9 hPa | 0.25 mm | 1.79 m/s, 277° | 252 W/m² | - |
| 1777967732 | 16.11° C | 75% | 1009 hPa | 0.25 mm | 2.24 m/s, 250° | 284 W/m² | - |
| 1777967432 | 16.11° C | 77% | 1009.1 hPa | 0.25 mm | 2.24 m/s, 257° | 402 W/m² | - |
| 1777967131 | 15.56° C | 79% | 1009.2 hPa | 0.25 mm | 2.68 m/s, 237° | 480 W/m² | - |
| 1777966842 | 15° C | 81% | 1009.1 hPa | 0.25 mm | 2.68 m/s, 270° | 511 W/m² | - |
| 1777966532 | 14.44° C | 82% | 1009.2 hPa | 0.25 mm | 3.58 m/s, 215° | 367 W/m² | - |
| 1777966232 | 14.44° C | 82% | 1009.2 hPa | 0.25 mm | 3.13 m/s, 222° | 304 W/m² | - |
| 1777965931 | 14.44° C | 82% | 1009.3 hPa | 0.25 mm | 3.13 m/s, 217° | 324 W/m² | - |
| 1777965632 | 13.89° C | 82% | 1009.2 hPa | 0.25 mm | 2.68 m/s, 220° | 190 W/m² | - |
| 1777965332 | 13.89° C | 82% | 1009.2 hPa | 0.25 mm | 3.13 m/s, 230° | 175 W/m² | - |
| 1777965032 | 13.89° C | 82% | 1009.2 hPa | 0.25 mm | 2.24 m/s, 195° | 153 W/m² | - |
| 1777964732 | 13.89° C | 82% | 1009.2 hPa | 0.25 mm | 3.13 m/s, 242° | 133 W/m² | - |
| 1777964431 | 13.89° C | 83% | 1009.2 hPa | 0.25 mm | 2.24 m/s, 250° | 132 W/m² | - |
| 1777964131 | 13.89° C | 83% | 1009.2 hPa | 0.25 mm | 2.24 m/s, 290° | 150 W/m² | - |
| 1777963831 | 13.33° C | 84% | 1009.1 hPa | 0.25 mm | 1.34 m/s, 305° | 144 W/m² | - |
| 1777963531 | 13.33° C | 84% | 1009.1 hPa | 0.25 mm | 1.34 m/s, 295° | 124 W/m² | - |
| 1777963231 | 13.33° C | 84% | 1009.1 hPa | 0.25 mm | 1.79 m/s, 282° | 88 W/m² | - |
| 1777962932 | 13.33° C | 84% | 1009 hPa | 0.25 mm | 2.24 m/s, 317° | 81 W/m² | - |
| 1777962631 | 13.33° C | 84% | 1008.9 hPa | 0.25 mm | 1.79 m/s, 355° | 76 W/m² | - |
* Rain latest 24 hours (hover to see other rain measurements)
** Current wind speed in m/s (hover to see current wind gust speed)